Location: Aleksandr�w
(50.4651°N, 22.8952°E)
Time: 09:17:27
(UTC+00:00)

Daily predictions for brighter satellites

Satellite Brightness Start Highest point End
(mag) Time Altitude Azimuth Time Altitude Azimuth Time Altitude Azimuth
STARLINK-1245 4.1 19:09:31 10° W 19:13:39 67° N 19:17:47 10° ENE
STARLINK-1106 3.6 19:10:17 10° WNW 19:14:26 83° SSW 19:18:35 10° ESE
CARTOSAT-1 4.5 19:11:23 10° SE 19:15:18 35° ENE 19:19:15 10° N
STARLINK-1138 3.6 19:11:46 10° SW 19:15:53 68° SSE 19:20:01 10° ENE
Abrixas rocket 2.7 19:14:39 10° W 19:17:24 36° SSW 19:20:09 10° SE
ERBS 3.1 19:14:49 10° WSW 19:18:04 56° NNW 19:21:21 10° NE
STARLINK-1233 4.1 19:14:29 10° W 19:18:37 65° N 19:22:45 10° ENE
STARLINK-1112 3.6 19:15:14 10° WNW 19:19:24 79° SSW 19:23:31 10° ESE
STARLINK-1234 3.8 19:16:34 10° WNW 19:19:49 53° N 19:23:03 10° E
Aureole 2 4.3 19:16:54 10° NNW 19:20:05 59° ENE 19:23:01 10° SE
STARLINK-1143 3.6 19:16:43 10° WSW 19:20:50 72° SSE 19:24:58 10° ENE
STARLINK-1204 4.1 19:19:30 10° W 19:23:36 64° N 19:27:44 10° ENE
STARLINK-1128 3.6 19:20:13 10° WNW 19:24:22 75° SSW 19:28:29 10° ESE
STARLINK-1209 3.7 19:22:24 10° WNW 19:25:39 55° N 19:28:54 10° E
STARLINK-1241 3.6 19:21:43 10° WSW 19:25:51 76° SSE 19:30:00 10° ENE
Cosmos 1300 Rocket 4.2 19:21:53 10° NNW 19:26:16 57° W 19:30:36 10° S
STARLINK-1238 4.2 19:24:30 10° W 19:28:37 63° N 19:32:45 10° ENE
deb Kosmos-1763 4.0 19:25:32 10° NNW 19:29:09 87° ENE 19:32:44 10° SSE
STARLINK-1113 3.7 19:25:12 10° WNW 19:29:20 71° SSW 19:33:28 10° ESE
USA 215 4.1 19:24:28 10° E 19:30:46 52° N 19:37:04 10° WNW
STARLINK-1239 3.6 19:26:40 10° WSW 19:30:48 80° SSE 19:34:58 10° ENE
NOSS 8 (E) 4.1 19:27:46 10° SSW 19:30:55 64° SE 19:33:58 10° NE
Meteor 1-15 Rocket 4.4 19:27:00 10° N 19:32:58 81° ENE 19:38:53 10° SSE
Aureole 2 Rocket 2.2 19:30:21 10° S 19:33:22 50° ESE 19:36:16 10° NNE
STARLINK-1201 4.2 19:29:30 10° W 19:33:36 62° N 19:37:44 10° ENE
NOSS 2-2 (D) 4.0 19:30:46 10° S 19:33:53 29° ESE 19:37:19 10° ENE
CENTAUR R/B 3.7 19:26:39 10° NW 19:34:12 55° NE 19:42:39 10° ESE
STARLINK-1119 3.7 19:30:12 10° WNW 19:34:20 68° SSW 19:38:26 10° SE
Cosmos 1437 Rocket 2.6 19:31:18 10° S 19:35:06 84° E 19:38:57 10° NNE
STARLINK-1240 3.6 19:31:37 10° WSW 19:35:46 83° SSE 19:39:56 10° ENE
ATLAS 3B R/B 4.0 19:31:05 10° NW 19:37:11 35° NNE 19:43:26 10° E
Lacrosse 5 3.4 19:33:58 10° WNW 19:38:03 25° SW 19:42:07 10° S
Cosmos 304 Rocket 3.8 19:33:48 10° S 19:38:31 64° ESE 19:43:17 10° NNE
Cosmos 1378 3.9 19:35:09 10° SSE 19:38:31 33° E 19:41:54 10° NNE
STARLINK-1206 4.2 19:34:31 10° W 19:38:37 61° N 19:42:45 10° ENE
STARLINK-1114 3.7 19:35:10 10° WNW 19:39:17 64° SSW 19:43:11 11° SE
NOSS 3-2 (C) 4.4 19:32:10 10° NW 19:39:19 60° NE 19:47:28 10° ESE
STARLINK-1203 3.6 19:36:13 10° WSW 19:40:25 87° SSE 19:44:39 10° ENE
STARLINK-1216 3.6 19:36:35 10° WSW 19:40:44 87° SSE 19:44:54 10° ENE
CZ-2C R/B 4.1 19:36:09 10° N 19:41:27 44° WNW 19:46:44 10° SW
ISS -1.3 19:39:52 10° WSW 19:41:35 13° SW 19:43:19 10° SSW
STARLINK-1205 4.2 19:39:30 10° W 19:43:36 60° N 19:47:44 10° ENE
STARLINK-1130 (DARKSAT) 3.8 19:40:10 10° WNW 19:44:15 60° SSW 19:47:59 12° SE
STARLINK-1237 3.6 19:41:34 10° WSW 19:45:43 90° NNW 19:49:53 10° ENE
Cosmos 1674 Rocket 3.6 19:44:12 10° S 19:48:35 85° W 19:53:02 10° N
STARLINK-1218 4.2 19:44:30 10° W 19:48:36 60° N 19:52:44 10° ENE
STARLINK-1084 3.8 19:45:09 10° WNW 19:49:13 57° SSW 19:52:46 13° SE
STARLINK-1202 3.7 19:46:33 10° WSW 19:50:43 86° NNW 19:54:53 10° ENE
NOSS 2-2 (E) 3.3 19:47:34 10° SSW 19:51:03 51° SE 19:55:04 10° NE
Cosmos 1378 Rocket 3.5 19:47:06 10° S 19:51:30 81° E 19:55:54 10° NNE
EXPRESS MD2 3.8 19:49:07 10° SW 19:52:20 48° SSE 19:58:25 10° ENE
SL-27 R/B 3.5 19:49:47 10° N 19:53:09 35° ENE 19:55:55 13° SE
STARLINK-1254 4.2 19:49:30 10° W 19:53:36 60° N 19:57:42 10° ENE
Cosmos 1766 3.5 19:50:09 10° N 19:54:06 58° ENE 19:57:24 14° SSE
STARLINK-1098 3.9 19:50:08 10° WNW 19:54:11 53° SSW 19:57:33 14° SE
Cosmos 2297 3.7 19:50:12 10° SSW 19:55:52 78° ESE 20:01:38 10° NNE
Cosmos 1943 Rocket 2.7 19:51:11 10° S 19:56:17 39° ESE 20:01:27 10° NE
Cosmos 1900 4.4 19:52:35 10° NW 19:57:39 85° SW 20:01:59 14° SE
STARLINK-1231 4.2 19:54:29 10° W 19:58:35 59° N 20:02:41 10° E
STARLINK-1123 4.0 19:55:07 10° WNW 19:59:08 50° SSW 20:02:19 15° SE
Cosmos 2082 Rocket 3.7 19:54:51 10° NW 19:59:48 31° WSW 20:04:43 10° SSW
IGS 5A 4.2 19:55:59 10° S 20:00:01 49° W 20:04:05 10° NNW
STARLINK-1246 3.7 19:56:32 10° WSW 20:00:42 80° NNW 20:04:51 10° ENE
BREEZE-M DEB 3.4 20:00:38 10° SSW 20:03:02 33° SE 20:08:19 10° ENE
SeaSat 1 4.3 20:00:52 10° ENE 20:03:13 13° E 20:04:49 12° ESE
STARLINK-1232 4.2 19:59:30 10° W 20:03:35 59° N 20:07:42 10° E
STARLINK-1097 4.1 20:00:08 10° WNW 20:04:08 47° SSW 20:07:07 16° SE
STARLINK-1224 3.8 20:01:31 10° WSW 20:05:39 78° NNW 20:09:49 10° ENE
Meteor 1-23 Rocket 4.3 20:01:12 10° SSW 20:06:55 82° WNW 20:12:34 10° N
STARLINK-1208 4.2 20:04:28 10° W 20:08:34 59° N 20:12:41 10° E
STARLINK-1099 4.2 20:05:07 10° WNW 20:09:04 44° SSW 20:11:54 17° SSE
Cosmos 1461 3.3 20:05:19 10° SW 20:09:29 70° NW 20:13:56 10° NE
SAR-Lupe-2 4.4 20:06:23 10° N 20:09:55 52° WNW 20:13:25 10° SSW
STARLINK-1225 3.8 20:06:31 10° WSW 20:10:39 75° NNW 20:14:49 10° ENE
Cosmos 1975 Rocket 3.5 20:07:29 15° SSE 20:10:57 47° E 20:15:13 10° NNE
Cosmos 2369 Rocket 2.8 20:07:22 12° S 20:12:12 38° ESE 20:17:23 10° NE
STARLINK-1271 4.2 20:09:29 10° W 20:13:35 60° N 20:17:42 10° E
STARLINK-1104 4.2 20:10:06 10° WNW 20:14:01 41° SW 20:16:40 18° SSE
STARLINK-1212 3.2 20:12:28 10° WNW 20:15:34 65° NNE 20:18:40 10° E
NOSS 2-2 (C) 3.1 20:12:04 10° SSW 20:15:36 70° SE 20:19:41 10° NE
STARLINK-1230 3.9 20:11:30 10° W 20:15:38 73° NNW 20:19:48 10° ENE
STARLINK-1105 3.2 20:12:57 10° WNW 20:16:03 66° NNE 20:19:05 10° E
STARLINK-1247 3.2 20:13:49 10° WNW 20:16:56 66° NNE 20:19:59 10° E
STARLINK-1227 3.2 20:14:19 10° WNW 20:17:25 66° NNE 20:20:25 11° E
STARLINK-1226 3.1 20:15:10 10° WNW 20:18:17 67° NNE 20:21:16 11° E
STARLINK-1154 4.2 20:14:29 10° WNW 20:18:35 60° N 20:22:42 10° E
STARLINK-1144 4.3 20:15:07 10° WNW 20:18:59 38° SW 20:21:27 19° SSE
SPOT 5 3.3 20:14:18 13° S 20:19:01 70° WSW 20:24:23 10° NNW
STARLINK-1215 3.1 20:16:04 10° WNW 20:19:11 68° NNE 20:22:09 11° E
ATLAS 2AS CENTAUR R/B 3.8 20:13:12 12° S 20:19:36 33° ESE 20:26:25 10° NE
STARLINK-1243 3.9 20:16:30 10° W 20:20:39 71° NNW 20:24:48 10° ENE
NOSS 3-2 (A) 4.1 20:13:28 10° NW 20:20:52 76° SW 20:27:48 16° SSE
STARLINK-1217 3.1 20:17:53 10° WNW 20:21:00 69° NNE 20:23:53 12° E
Cosmos 2026 Rocket 4.2 20:15:52 14° SSE 20:21:17 58° E 20:27:31 10° NNE
STARLINK-1229 3.1 20:18:47 10° WNW 20:21:55 69° NNE 20:24:46 12° E
Meteor 1-22 Rocket 4.3 20:16:05 10° NNW 20:22:04 87° W 20:26:47 16° S
Cosmos 1553 Rocket 4.5 20:16:18 10° N 20:22:24 49° ENE 20:27:04 17° SE
STARLINK-1270 3.1 20:19:41 10° WNW 20:22:48 70° NNE 20:25:38 12° E
STARLINK-1197 4.2 20:19:27 10° WNW 20:23:33 60° N 20:27:40 10° E
ATLAS CENTAUR R/B 3.4 20:23:28 13° ESE 20:23:38 13° ESE 20:25:38 10° E
STARLINK-1103 4.4 20:20:07 10° WNW 20:23:56 36° SW 20:26:14 20° SSE
ERS-1 Rocket 3.5 20:19:40 12° S 20:24:16 54° W 20:29:15 10° NNW
STARLINK-1189 3.1 20:21:29 10° WNW 20:24:36 71° NNE 20:27:21 13° E
STARLINK-1188 3.1 20:22:23 10° WNW 20:25:31 71° NNE 20:28:15 13° E
STARLINK-1236 4.0 20:21:29 10° W 20:25:37 69° NNW 20:29:46 10° ENE
STARLINK-1187 2.9 20:23:28 10° WNW 20:26:35 76° NNE 20:29:06 15° ESE
STARLINK-1191 3.0 20:24:50 10° WNW 20:27:56 73° NNE 20:30:32 14° E
Cosmos 1025 Rocket 4.3 20:26:06 17° SE 20:28:14 26° E 20:31:48 10° NNE
STARLINK-1198 4.1 20:24:26 10° WNW 20:28:33 61° N 20:32:40 10° E
STARLINK-1221 3.0 20:25:47 10° WNW 20:28:54 74° NNE 20:31:27 14° ESE
Okean 2 3.3 20:25:56 15° S 20:29:19 80° E 20:33:30 10° NNE
STARLINK-1222 3.0 20:26:38 10° WNW 20:29:44 74° NNE 20:32:16 14° ESE
STARLINK-1214 3.0 20:27:32 10° WNW 20:30:39 75° NNE 20:33:09 15° ESE
Cosmos 1953 3.8 20:29:21 10° NNE 20:32:41 25° ENE 20:35:00 15° ESE
USA 238 DEB 4.0 20:25:35 10° NW 20:32:43 66° SW 20:38:26 18° SSE
USA 238 4.0 20:25:41 10° NW 20:32:49 67° SW 20:38:32 18° SSE
STARLINK-1199 4.1 20:29:27 10° WNW 20:33:34 62° N 20:37:41 10° E
Cosmos 968 Rocket 3.6 20:28:45 10° NNW 20:33:55 67° ENE 20:37:31 19° SE
Cosmos 1805 4.1 20:30:15 10° NNW 20:34:01 44° W 20:37:07 14° SSW
Cosmos 1470 3.1 20:30:31 10° N 20:34:19 50° ENE 20:36:30 22° SE
Resurs 01 Rocket 4.4 20:33:37 10° WSW 20:34:57 11° W 20:36:16 10° WNW
STARLINK-1228 3.1 20:31:36 10° WNW 20:35:07 89° SSW 20:37:42 17° ESE
STARLINK-1269 4.0 20:31:29 10° W 20:35:37 66° N 20:39:44 10° ENE
STARLINK-1235 2.9 20:35:13 10° WNW 20:38:28 89° SSW 20:40:37 20° ESE
STARLINK-1210 4.1 20:34:25 10° WNW 20:38:33 63° N 20:42:40 10° E
Cosmos 1455 Rocket 3.0 20:35:05 10° N 20:39:27 88° WSW 20:42:18 21° S
STARLINK-1200 4.1 20:36:27 10° W 20:40:35 64° N 20:44:43 10° ENE
STARLINK-1219 4.0 20:39:24 10° WNW 20:43:32 64° N 20:47:39 10° E
Meteor 2-13 Rocket 4.5 20:39:29 16° S 20:44:33 74° E 20:50:44 10° NNE
STARLINK-1192 4.1 20:41:28 10° W 20:45:35 63° N 20:49:43 10° ENE
Cosmos 1758 3.5 20:43:23 10° N 20:47:25 62° ENE 20:49:40 25° SSE
ATLAS CENTAUR R/B 3.4 20:46:25 10° NNW 20:47:36 15° NNE 20:48:58 10° NE
Terra 2.4 20:44:22 16° S 20:47:58 50° W 20:52:38 10° NNW
STARLINK-1211 4.0 20:44:24 10° WNW 20:48:32 65° N 20:52:40 10° E
SL-4 R/B 2.9 20:45:26 10° SSW 20:49:50 37° SE 20:54:19 10° ENE
STARLINK-1244 4.1 20:46:27 10° W 20:50:34 62° N 20:54:42 10° ENE
SL-4 R/B 3.1 20:50:27 12° ENE 20:50:51 12° ENE 20:51:51 10° NE
Cosmos 1842 3.3 20:48:51 18° SSW 20:51:40 77° WNW 20:55:34 10° N
Abrixas rocket 4.5 20:51:26 10° SW 20:51:50 11° SW 20:51:50 11° SW
STARLINK-1245 4.0 20:49:23 10° WNW 20:53:31 66° N 20:57:39 10° E
Cosmos 1503 Rocket 4.1 20:48:24 10° NNW 20:53:44 72° ENE 20:57:15 22° SE
STARLINK-1138 4.1 20:51:28 10° W 20:55:34 61° N 20:59:41 10° ENE
STARLINK-1234 2.9 20:53:00 10° WNW 20:56:16 69° SSW 20:57:44 29° SE
STARLINK-1233 3.9 20:54:20 10° WNW 20:58:29 68° NNE 21:02:37 10° E
STARLINK-1143 4.2 20:56:26 10° W 21:00:33 61° N 21:04:39 10° ENE
Cosmos 2263 4.2 20:57:25 17° S 21:01:47 63° ESE 21:07:21 10° NE
STARLINK-1209 3.0 20:58:58 10° WNW 21:02:13 61° SSW 21:03:27 34° SE
STARLINK-1204 3.9 20:59:20 10° WNW 21:03:29 70° NNE 21:07:37 10° E
STARLINK-1241 4.2 21:01:28 10° W 21:05:34 60° N 21:09:41 10° ENE
STARLINK-1238 3.8 21:04:20 10° WNW 21:08:30 72° NNE 21:12:38 10° E
STARLINK-1239 4.2 21:06:27 10° W 21:10:34 60° N 21:14:40 10° ENE
Cosmos 1536 Rocket 3.7 21:08:36 27° SSE 21:10:45 59° E 21:15:03 10° NNE
Meteor 1-21 4.3 21:07:51 17° SSW 21:12:17 81° W 21:17:56 10° N
COSMOS 2455 3.5 21:09:44 23° SSE 21:12:45 38° ESE 21:18:16 10° NE
Cosmos 1354 Rocket 4.0 21:07:41 10° NNW 21:13:02 89° ENE 21:16:12 25° SSE
USA 215 3.4 21:06:54 10° ESE 21:13:28 78° NNE 21:20:01 10° WNW
STARLINK-1201 3.8 21:09:19 10° WNW 21:13:28 74° NNE 21:17:37 10° E
Cosmos 1674 4.3 21:13:31 19° ESE 21:14:37 21° E 21:17:33 10° NE
STARLINK-1240 4.2 21:11:25 10° W 21:15:32 59° N 21:19:39 10° E
Cosmos 1833 4.2 21:10:12 10° NNW 21:15:50 74° WSW 21:19:13 25° SSE
Cosmos 1544 Rocket 4.0 21:11:57 10° NNW 21:16:11 52° W 21:18:39 23° SSW
Cosmos 1271 Rocket 2.7 21:14:22 27° S 21:16:23 89° ESE 21:20:21 10° NNE
Spot 4 3.8 21:14:22 26° SSE 21:17:09 86° ENE 21:22:02 10° NNW
Cosmos 1242 Rocket 3.0 21:15:26 22° SSW 21:17:39 60° WNW 21:21:19 10° N
Cosmos 2297 Rocket 4.1 21:13:45 10° NNW 21:18:20 24° NE 21:22:54 10° E
STARLINK-1206 3.7 21:14:19 10° WNW 21:18:28 76° NNE 21:22:38 10° ESE
STARLINK-1203 4.2 21:16:16 10° W 21:20:26 60° N 21:24:37 10° E
STARLINK-1216 4.2 21:16:25 10° W 21:20:32 59° N 21:24:39 10° E
STARLINK-60 2.9 21:20:10 25° SW 21:21:44 56° SSE 21:24:53 10° ENE
STARLINK-1205 3.7 21:19:17 10° WNW 21:23:27 79° NNE 21:27:32 10° ESE
CENTAUR R/B 3.4 21:17:26 10° NW 21:25:17 60° SW 21:31:08 22° SSE
STARLINK-1237 4.2 21:21:25 10° W 21:25:32 59° N 21:29:39 10° E
Cosmos 1707 2.7 21:24:35 30° SSW 21:26:27 87° WNW 21:30:21 10° N
Cosmos 1174 4.1 21:26:35 33° SE 21:26:53 34° ESE 21:30:17 10° NE
Lacrosse 4 Rocket 4.3 21:25:04 10° N 21:27:18 14° NNE 21:29:30 10° ENE
Helios 1A 4.2 21:24:58 19° ESE 21:27:21 33° ENE 21:31:08 10° N
SL-27 R/B 4.4 21:25:20 10° NW 21:28:03 20° W 21:29:28 16° SW
STARLINK-1218 3.6 21:24:17 10° WNW 21:28:27 82° NNE 21:32:20 12° ESE
ATLAS 3B R/B 2.7 21:21:52 10° NW 21:28:40 89° NE 21:33:56 19° SE
NOSS 3-2 (C) 4.4 21:23:12 10° NW 21:30:25 50° WSW 21:35:37 22° S
STARLINK-1202 4.2 21:26:25 10° W 21:30:32 60° N 21:34:39 10° E
Cosmos 1726 2.0 21:27:41 10° N 21:31:26 88° E 21:32:50 37° S
ALOS 2 2.8 21:30:24 28° SE 21:32:36 63° ENE 21:36:58 10° N
Meteor 1-16 Rocket 4.1 21:27:14 10° N 21:32:49 81° ENE 21:35:51 27° SSE
STARLINK-1254 3.6 21:29:15 10° WNW 21:33:25 85° NNE 21:37:06 13° ESE
Cosmos 1867 3.7 21:29:55 10° NW 21:35:18 59° WSW 21:38:06 28° SSE
COSMOS 2487 2.3 21:32:31 10° NNW 21:36:00 82° WSW 21:37:03 42° SSE
NOSS 5 (C) 4.3 21:34:40 10° NW 21:37:46 86° NE 21:39:14 34° SE
STARLINK-1231 3.6 21:34:13 10° WNW 21:38:23 88° NNE 21:41:52 14° ESE
Cosmos 1992 Rocket 4.0 21:36:08 20° SSW 21:39:48 84° WNW 21:45:04 10° NNE
Cosmos 1943 Rocket 3.3 21:34:43 10° WSW 21:40:00 43° NW 21:45:23 10° NNE
STARLINK-1246 4.2 21:36:25 10° WNW 21:40:32 60° N 21:44:38 10° E
SeaSat 1 2.4 21:36:31 10° NNE 21:41:29 77° ESE 21:44:34 23° SSW
NOSS 3-4 (A) 3.4 21:36:32 15° SSW 21:41:32 73° SE 21:47:56 10° NE
NOSS 3-4 (C) 3.4 21:36:40 15° SSW 21:41:38 72° SE 21:48:02 10° NE
Cosmos 1606 Rocket 3.9 21:38:14 10° N 21:42:30 54° ENE 21:44:29 29° SE
EO 1 Del DPAF 3.5 21:38:47 10° N 21:42:32 61° WNW 21:44:29 26° SW
STARLINK-1232 3.5 21:39:13 10° WNW 21:43:23 89° SSW 21:46:40 16° ESE
STARLINK-1224 4.1 21:41:24 10° WNW 21:45:31 61° N 21:49:37 10° E
FALCON 9 DEB 4.3 21:46:54 27° ESE 21:46:54 27° ESE 21:49:07 10° E
STARLINK-1208 3.5 21:44:11 10° WNW 21:48:20 85° SSW 21:51:25 18° ESE
Cosmos 2315 Rocket 4.0 21:42:11 10° N 21:48:25 76° E 21:52:08 26° SSE
STARLINK-1225 4.1 21:46:24 10° WNW 21:50:31 62° N 21:54:38 10° E
Meteor 2-10 4.3 21:46:12 10° NNW 21:51:07 53° W 21:53:43 26° SSW
STARLINK-1212 3.8 21:48:24 10° W 21:50:47 32° SW 21:50:47 32° SW
STARLINK-29 3.0 21:51:41 51° SE 21:51:41 51° SE 21:54:46 10° ENE
STARLINK-1105 3.9 21:48:53 10° W 21:51:13 32° WSW 21:51:13 32° WSW
STARLINK-1247 3.9 21:49:45 10° W 21:52:06 31° WSW 21:52:06 31° WSW
STARLINK-1227 3.9 21:50:16 10° W 21:52:32 31° WSW 21:52:32 31° WSW
STARLINK-1271 3.5 21:49:12 10° WNW 21:53:21 82° SSW 21:56:14 19° ESE
BREEZE-M DEB (TANK) 2.7 21:44:41 10° W 21:53:56 79° S 21:56:55 10° E
STARLINK-1226 3.9 21:51:07 10° W 21:53:24 30° WSW 21:53:24 30° WSW
S3M 4.4 21:48:21 10° NNW 21:54:20 55° W 21:58:10 23° SSW
BREEZE-M DEB (TANK) 3.0 21:50:56 10° W 21:54:23 57° SSW 21:59:00 10° ESE
RESURS DK-1 3.2 21:53:56 31° SE 21:54:51 35° ESE 21:58:37 10° NE
STARLINK-1215 4.0 21:52:01 10° W 21:54:16 30° WSW 21:54:16 30° WSW
STARLINK-1230 4.1 21:51:23 10° WNW 21:55:30 62° N 21:59:37 10° E
Cosmos 2227 Rocket 3.6 21:50:25 10° NNW 21:55:35 34° NE 22:00:43 10° ESE
Cosmos 2369 Rocket 3.2 21:50:45 10° SW 21:56:10 45° NW 22:01:36 10° NNE
STARLINK-1217 4.1 21:53:51 10° W 21:56:00 28° WSW 21:56:00 28° WSW
STARLINK-1229 4.1 21:54:45 10° W 21:56:54 28° WSW 21:56:54 28° WSW
Cosmos 2084 4.4 21:57:06 30° SE 21:57:54 32° ESE 22:01:52 10° ENE
STARLINK-1154 3.5 21:54:10 10° WNW 21:58:20 78° SSW 22:01:00 21° ESE
STARLINK-1270 4.1 21:55:40 10° W 21:57:46 27° WSW 21:57:46 27° WSW
STARLINK-1189 4.2 21:57:28 10° W 21:59:28 26° WSW 21:59:28 26° WSW
STARLINK-1243 4.1 21:56:23 10° WNW 22:00:31 63° N 22:04:38 10° E
Cosmos 1340 Rocket 3.4 21:57:03 10° NNW 22:00:59 48° W 22:02:31 31° SSW
STARLINK-1188 4.3 21:58:23 10° W 22:00:22 26° WSW 22:00:22 26° WSW
ATLAS CENTAUR R/B 1.3 21:59:35 26° SW 22:01:59 85° SE 22:06:06 10° NE
Cosmos 1626 3.5 22:01:28 23° ESE 22:02:29 27° E 22:05:39 10° NNE
Aureole 3 2.9 21:59:38 10° NNW 22:02:51 56° W 22:03:24 46° SW
Thor Agena Rocket 4.3 21:58:02 10° N 22:03:09 50° WNW 22:07:12 16° SW
STARLINK-1197 3.5 21:59:08 10° WNW 22:03:16 74° SSW 22:05:46 23° ESE
STARLINK-1191 4.4 22:00:50 10° W 22:02:39 24° WSW 22:02:39 24° WSW
STARLINK-1221 4.4 22:01:48 10° W 22:03:34 23° WSW 22:03:34 23° WSW
STARLINK-1222 4.5 22:02:39 10° W 22:04:23 23° WSW 22:04:23 23° WSW
STARLINK-1236 4.0 22:01:22 10° WNW 22:05:29 65° N 22:09:37 10° E
Cosmos 1025 Rocket 4.2 22:02:58 18° SW 22:05:42 36° WNW 22:09:42 10° N
Cosmos 1908 3.1 22:02:17 10° NNW 22:06:06 81° W 22:07:21 41° S
Nimbus 7 Rocket 4.5 22:00:07 10° NNE 22:06:15 88° WNW 22:10:05 24° SSW
STARLINK-1214 4.5 22:03:34 10° W 22:05:16 22° WSW 22:05:16 22° WSW
STARLINK-1198 3.5 22:04:07 10° WNW 22:08:15 70° SSW 22:10:32 25° SE
Cosmos 1953 3.5 22:05:33 10° NNW 22:09:09 33° W 22:10:41 24° SW
Cosmos 1656 Rocket 4.1 22:04:50 14° SW 22:09:38 62° WNW 22:15:10 10° NNE
BREEZE M DEB (TANK) 3.7 22:07:39 10° W 22:14:01 - E 22:08:33 19° W
ATLAS 2AS CENTAUR R/B 3.1 22:02:00 10° SW 22:10:02 82° NW 22:17:59 10° NE
BREEZE-M DEB (TANK) 4.4 22:02:44 10° WNW 22:10:48 30° SW 22:11:56 26° SSW
STARLINK-1199 3.5 22:09:07 10° WNW 22:13:14 67° SSW 22:15:20 27° SE
Cosmos 2292 Rocket 3.5 22:13:24 32° SW 22:14:41 50° W 22:17:47 10° N
Landsat 4 4.1 22:11:23 10° NNE 22:15:01 48° E 22:16:01 37° SSE
STARLINK-1269 3.9 22:11:21 10° WNW 22:15:29 67° N 22:19:37 10° E
STARLINK-1210 3.6 22:14:05 10° WNW 22:18:12 63° SSW 22:20:06 29° SE
KORONAS-FOTON 3.7 22:17:21 39° SSW 22:18:40 82° W 22:22:33 10° N
FALCON 9 R/B 4.2 22:19:35 18° SE 22:19:35 18° SE 22:25:03 10° ESE
SL-4 R/B 2.9 22:20:18 17° WNW 22:20:18 17° WNW 22:21:22 10° NW
STARLINK-1200 3.9 22:16:19 10° WNW 22:20:27 69° NNE 22:24:35 10° E
Cosmos 1777 Rocket 4.0 22:15:34 10° NNW 22:20:47 68° WSW 22:23:18 31° S
EO 1 Delta rocket 4.3 22:16:25 10° NNE 22:22:12 63° E 22:24:37 30° SSE
STARLINK-1219 3.6 22:19:04 10° WNW 22:23:09 59° SSW 22:24:52 32° SE
ATLAS 5 CENTAUR R/B 1.5 22:21:46 15° WSW 22:24:13 55° NW 22:26:16 10° NE
Cosmos 1809 Rocket 4.5 22:21:17 27° S 22:24:46 75° E 22:30:59 10° NNE
Cosmos 1356 Rocket 4.4 22:21:07 10° N 22:25:05 40° ENE 22:27:23 22° SE
STARLINK-1192 3.8 22:21:19 10° WNW 22:25:28 71° NNE 22:29:36 10° E
Cosmos 1892 Rocket 3.6 22:25:06 35° S 22:26:51 71° E 22:31:13 10° NNE
Cosmos 2228 3.2 22:22:51 10° NNW 22:27:01 56° W 22:28:36 34° SSW
STARLINK-52 2.8 22:26:28 42° WSW 22:27:25 79° SSE 22:30:38 10° ENE
Cosmos 1726 Rocket 3.6 22:23:30 10° NNW 22:27:49 68° W 22:29:31 35° S
STARLINK-1211 3.6 22:24:04 10° WNW 22:28:09 56° SSW 22:29:40 34° SSE
SL-4 R/B 2.3 22:24:29 10° WSW 22:29:21 88° SSE 22:34:11 10° ENE
STARLINK-1244 3.8 22:26:17 10° WNW 22:30:26 73° NNE 22:34:35 10° E
STARLINK-1320 4.0 22:31:42 30° ESE 22:31:42 30° ESE 22:33:46 10° E
STARLINK-1322 4.0 22:32:00 30° ESE 22:32:00 30° ESE 22:34:05 10° ENE
STARLINK-1324 4.0 22:32:21 30° ESE 22:32:21 30° ESE 22:34:27 10° ENE
ERBS 4.1 22:28:44 10° NW 22:31:48 33° NNE 22:34:53 10° E
STARLINK-1294 4.0 22:32:38 31° ESE 22:32:38 31° ESE 22:34:45 10° ENE
STARLINK-1261 4.0 22:32:58 31° ESE 22:32:58 31° ESE 22:35:05 10° ENE
Cosmos 1300 2.8 22:28:20 10° N 22:32:10 66° ENE 22:33:33 36° SSE
STARLINK-1325 3.9 22:33:18 31° ESE 22:33:18 31° ESE 22:35:27 10° ENE
STARLINK-1338 3.9 22:32:46 38° SE 22:32:46 38° SE 22:36:18 10° ENE
STARLINK-1333 3.9 22:33:40 31° ESE 22:33:40 31° ESE 22:35:49 10° ENE
STARLINK-1245 3.7 22:29:03 10° WNW 22:33:05 52° SSW 22:34:26 36° SSE
STARLINK-1334 3.9 22:33:58 32° ESE 22:33:58 32° ESE 22:36:08 10° ENE
Cosmos 921 Rocket 3.2 22:31:52 35° SSE 22:33:24 57° ESE 22:37:41 10° NNE
STARLINK-1326 3.9 22:34:18 32° ESE 22:34:18 32° ESE 22:36:29 10° ENE
YAOGAN 11 4.0 22:31:51 35° S 22:33:37 74° WSW 22:37:57 10° NNW
STARLINK-1323 3.9 22:34:36 32° ESE 22:34:36 32° ESE 22:36:48 10° ENE
STARLINK-1349 3.9 22:34:56 33° ESE 22:34:56 33° ESE 22:37:09 10° ENE
STARLINK-1336 3.8 22:35:16 33° ESE 22:35:16 33° ESE 22:37:29 10° ENE
STARLINK-1331 3.8 22:35:35 33° ESE 22:35:35 33° ESE 22:37:49 10° ENE
STARLINK-1344 3.8 22:35:54 33° ESE 22:35:54 33° ESE 22:38:09 10° ENE
STARLINK-1138 3.7 22:31:16 10° WNW 22:35:26 75° NNE 22:39:34 10° ESE
STARLINK-1343 3.8 22:36:14 34° ESE 22:36:14 34° ESE 22:38:29 10° ENE
Meteor 1-24 Rocket 3.7 22:33:05 30° S 22:35:47 70° E 22:41:17 10° NNE
STARLINK-1346 3.7 22:36:30 35° ESE 22:36:30 35° ESE 22:38:52 10° ENE
STARLINK-1328 3.8 22:36:54 34° ESE 22:36:54 34° ESE 22:39:11 10° ENE
STARLINK-1354 3.7 22:37:13 35° ESE 22:37:13 35° ESE 22:39:31 10° ENE
STARLINK-1347 3.7 22:37:33 35° ESE 22:37:33 35° ESE 22:39:52 10° ENE
STARLINK-1357 3.7 22:37:53 35° ESE 22:37:53 35° ESE 22:40:13 10° ENE
STARLINK-1335 3.7 22:38:12 36° ESE 22:38:12 36° ESE 22:40:33 10° ENE
STARLINK-1327 3.7 22:38:31 36° ESE 22:38:31 36° ESE 22:40:52 10° ENE
CZ-4C R/B 3.7 22:36:20 16° SE 22:38:01 19° ESE 22:41:50 10° ENE
STARLINK-1233 3.8 22:34:01 10° WNW 22:38:02 49° SSW 22:39:12 37° SSE
STARLINK-1340 3.7 22:38:51 36° ESE 22:38:51 36° ESE 22:41:14 10° ENE
STARLINK-1356 3.6 22:39:10 36° ESE 22:39:10 36° ESE 22:41:33 10° ENE
STARLINK-1345 3.6 22:39:28 37° ESE 22:39:28 37° ESE 22:41:52 10° ENE
STARLINK-1355 3.6 22:39:47 37° ESE 22:39:47 37° ESE 22:42:12 10° ENE
STARLINK-1371 3.7 22:39:09 41° SSE 22:39:21 41° SSE 22:42:55 10° ENE
STARLINK-1321 3.6 22:40:09 38° ESE 22:40:09 38° ESE 22:42:35 10° ENE
STARLINK-1358 3.6 22:40:29 38° ESE 22:40:29 38° ESE 22:42:55 10° ENE
STARLINK-1332 3.6 22:40:48 38° ESE 22:40:48 38° ESE 22:43:15 10° ENE
STARLINK-1143 3.7 22:36:14 10° WNW 22:40:24 78° NNE 22:44:32 10° ESE
Cosmos 1437 3.1 22:40:11 40° ESE 22:40:33 43° E 22:43:26 10° NNE
STARLINK-1348 3.5 22:41:05 38° ESE 22:41:05 38° ESE 22:43:33 10° ENE
STARLINK-1330 3.5 22:41:27 39° ESE 22:41:27 39° ESE 22:43:56 10° ENE
STARLINK-1363 3.5 22:41:47 39° ESE 22:41:47 39° ESE 22:44:16 10° ENE
STARLINK-1337 3.5 22:42:07 39° ESE 22:42:07 39° ESE 22:44:37 10° ENE
STARLINK-1342 3.5 22:42:25 40° ESE 22:42:25 40° ESE 22:44:56 10° ENE
Resurs 1-4 Rocket 4.3 22:39:33 10° NE 22:42:16 14° E 22:44:59 10° ESE
STARLINK-1364 3.5 22:42:45 40° ESE 22:42:45 40° ESE 22:45:17 10° ENE
STARLINK-1376 3.4 22:43:04 41° ESE 22:43:04 41° ESE 22:45:37 10° ENE
STARLINK-1341 3.7 22:42:21 42° SSE 22:42:40 43° SSE 22:46:16 10° ENE
STARLINK-1360 3.4 22:43:23 41° ESE 22:43:23 41° ESE 22:45:58 10° ENE
STARLINK-1204 3.9 22:39:01 10° WNW 22:43:00 46° SSW 22:43:59 38° S
Cosmos 220 Rocket 4.2 22:41:33 35° S 22:43:14 60° ESE 22:47:38 10° NNE
STARLINK-1361 3.4 22:43:43 41° ESE 22:43:43 41° ESE 22:46:18 10° ENE
STARLINK-1367 3.4 22:44:00 42° SE 22:44:00 42° SE 22:46:40 10° ENE
STARLINK-1366 3.4 22:44:23 42° SE 22:44:23 42° SE 22:46:59 10° ENE
SJ 16-02 2.2 22:39:45 10° NNW 22:44:04 47° ENE 22:47:11 17° SE
STARLINK-1241 3.7 22:41:15 10° WNW 22:45:25 81° NNE 22:49:34 10° ESE
STARLINK-1339 3.6 22:45:37 43° SSE 22:45:49 43° SSE 22:49:16 10° ENE
STARLINK-1374 3.6 22:45:33 42° S 22:46:00 45° SSE 22:49:37 10° ENE
STARLINK-1238 3.9 22:44:02 10° WNW 22:47:59 43° SSW 22:48:47 38° S
Helios 1B rocket 2.8 22:44:29 10° NNE 22:48:35 54° E 22:50:09 33° SSE
Cosmos 1980 Rocket 4.4 22:47:01 10° ESE 22:48:45 11° E 22:50:30 10° ENE
Cosmos 1674 3.9 22:48:20 23° WSW 22:49:57 34° WNW 22:53:27 10° N
STARLINK-1239 3.6 22:46:13 10° WNW 22:50:23 84° NNE 22:54:32 10° ESE
STARLINK-1377 3.6 22:52:00 42° S 22:52:42 49° SSE 22:56:23 10° ENE
STARLINK-1201 4.0 22:49:01 10° WNW 22:52:56 40° SW 22:53:33 37° S
Cosmos 1244 Rocket 4.5 22:51:03 26° SSW 22:54:43 80° W 23:00:55 10° N
STARLINK-1240 3.6 22:51:11 10° WNW 22:55:21 87° NNE 22:59:31 10° ESE
STARLINK-1353 3.5 22:55:17 42° SSW 22:56:06 52° SSE 22:59:48 10° ENE
CZ-2D R/B 4.1 22:52:44 10° NE 22:56:08 17° E 22:59:31 10° SE
USA 215 3.6 22:52:57 23° SSE 22:56:47 45° SW 23:03:02 10° WNW
STARLINK-60 3.6 22:54:44 10° W 22:57:53 55° N 23:01:02 10° ENE
STARLINK-1206 4.1 22:54:02 10° WNW 22:57:53 38° SW 22:58:21 36° SSW
COSMOS 2455 3.5 22:52:50 11° WSW 22:58:34 53° NW 23:04:29 10° NNE
Cosmos 2219 3.1 22:53:07 10° NNW 22:58:49 77° WSW 23:02:17 24° SSE
Cosmos 1745 Rocket 4.2 22:55:32 25° SSE 22:59:13 63° E 23:05:16 10° NNE
STARLINK-1375 3.4 22:58:33 41° SSW 22:59:30 54° SSE 23:03:13 10° ENE
STARLINK-1216 3.5 22:56:09 10° WNW 23:00:20 90° ESE 23:04:29 10° ESE
STARLINK-1203 3.6 22:56:15 10° WNW 23:00:28 90° SSW 23:04:40 10° ESE
GEOS 3 Rocket 4.4 22:55:33 10° ESE 23:00:38 55° NE 23:05:49 10° NW
STARLINK-1352 3.3 23:01:56 43° SSW 23:02:46 56° SSE 23:06:21 10° ENE
STARLINK-1205 4.2 22:59:02 10° WNW 23:02:50 35° SW 23:03:07 35° SSW
STARLINK-1350 3.4 23:01:49 39° SSW 23:02:54 57° SSE 23:06:38 10° ENE
Helios 1A 4.2 23:01:35 24° SW 23:02:55 29° W 23:06:37 10° NW
Cosmos 2297 Rocket 2.1 22:57:25 10° NNW 23:03:07 85° WSW 23:07:00 21° SSE
Meteor 2-16 Rocket 4.4 23:00:55 26° S 23:04:31 85° E 23:10:41 10° NNE
STARLINK-1237 3.5 23:01:09 10° WNW 23:05:19 87° SSW 23:09:28 10° ESE
PSLV R/B 3.6 23:01:19 10° NNE 23:05:52 81° ESE 23:07:53 32° S
Lacrosse 4 Rocket 2.4 23:02:50 10° NNW 23:07:05 48° NE 23:11:11 10° SE
STARLINK-1218 4.3 23:04:03 10° WNW 23:07:48 33° SW 23:07:55 33° SW
STARLINK-1368 3.3 23:08:27 36° SW 23:09:48 62° SSE 23:13:34 10° ENE
Cosmos 2058 Rocket 3.8 23:06:03 10° NNW 23:10:13 40° W 23:11:58 28° SW
STARLINK-1202 3.5 23:06:08 10° WNW 23:10:18 83° SSW 23:14:27 10° ESE
Cosmos 1455 3.3 23:07:06 10° N 23:10:38 38° ENE 23:12:55 19° SE
Meteor 2-10 Rocket 4.0 23:05:42 10° N 23:10:53 56° ENE 23:14:39 17° SSE
Cosmos 1937 Rocket 4.0 23:07:30 10° NNW 23:12:42 58° ENE 23:17:39 11° SE
STARLINK-1254 4.4 23:09:04 10° W 23:12:41 31° SW 23:12:41 31° SW
Meteor 1-29 3.1 23:09:26 10° NNE 23:12:48 61° ESE 23:13:48 39° SSE
Cosmos 2082 4.0 23:07:21 10° NNW 23:13:00 65° ENE 23:18:36 10° SE
STARLINK-1369 3.3 23:11:47 33° SW 23:13:17 65° SSE 23:17:03 10° ENE
Cosmos 1898 Rocket 3.6 23:08:07 10° NNW 23:13:30 77° ENE 23:17:35 17° SSE
Cosmos 1626 Rocket 3.5 23:11:50 32° S 23:13:48 77° E 23:18:11 10° NNE
STARLINK-1372 3.3 23:15:07 31° SW 23:16:45 68° SSE 23:20:32 10° ENE
Meteor 2-5 Rocket 4.4 23:14:12 21° SW 23:17:42 46° WNW 23:23:08 10° N
Starlink 7 placeholder 3.5 23:17:56 30° NNW 23:18:21 34° N 23:20:12 10° ENE
SeaSat 1 4.4 23:14:37 10° NNE 23:18:35 25° NW 23:22:32 10° W
ATLAS 3B R/B 3.9 23:13:21 10° WNW 23:18:40 25° WSW 23:21:10 20° SW
STARLINK-1378 3.3 23:18:28 29° SW 23:20:15 71° SSE 23:24:02 10° ENE
STARLINK-1246 3.5 23:16:06 10° WNW 23:20:15 76° SSW 23:24:24 10° ESE
SL-14 R/B 4.0 23:19:11 27° SW 23:20:47 42° WNW 23:24:29 10° N
Cosmos 192 4.4 23:18:27 29° S 23:21:00 74° ESE 23:25:58 10° NNE
IRAS Rocket 4.2 23:18:20 20° SSE 23:22:17 88° ENE 23:27:52 10° NNW
FALCON 9 DEB 3.3 23:20:07 15° W 23:22:52 74° NNW 23:26:20 10° ENE
STARLINK-1379 3.3 23:21:51 28° SW 23:23:45 74° SSE 23:27:33 10° ENE
STARLINK-1329 3.3 23:23:14 27° WSW 23:25:12 75° SSE 23:29:02 10° ENE
STARLINK-1224 3.5 23:21:05 10° WNW 23:25:14 72° SSW 23:29:21 10° ESE
SL-16 R/B 3.1 23:19:45 10° SE 23:25:43 55° ENE 23:31:44 10° N
STARLINK-29 3.6 23:24:36 10° W 23:27:46 57° N 23:30:56 10° ENE
CZ-4C R/B 4.4 23:24:34 14° SE 23:28:08 48° ENE 23:32:24 10° N
STARLINK-1362 3.3 23:26:40 25° WSW 23:28:47 78° SSE 23:32:37 10° ENE
Cosmos-2242 3.8 23:25:09 10° N 23:29:17 46° ENE 23:32:30 16° SE
ATLAS CENTAUR R/B 1.7 23:27:14 10° WNW 23:29:39 46° SW 23:34:28 10° SE
STARLINK-1225 3.5 23:26:04 10° WNW 23:30:12 68° SSW 23:34:20 10° SE
Cosmos 1656 3.7 23:27:53 26° SSW 23:31:11 72° ESE 23:36:47 10° NNE
STARLINK-1373 3.3 23:30:05 23° WSW 23:32:21 81° SSE 23:36:12 10° ENE
RESURS DK-1 3.8 23:29:48 14° WSW 23:32:54 32° NW 23:36:40 10° NNE
STARLINK-1365 3.3 23:31:11 22° WSW 23:33:36 83° SSE 23:37:27 10° ENE
Cosmos 1386 Rocket 4.5 23:29:51 24° SSW 23:33:44 83° W 23:40:01 10° N
STARLINK-1230 3.5 23:31:03 10° WNW 23:35:10 64° SSW 23:39:16 10° SE
STARLINK-1390 3.3 23:33:35 22° WSW 23:35:59 84° SSE 23:39:49 10° ENE
Cosmos 1697 Rocket 3.3 23:32:47 22° S 23:36:08 46° ESE 23:41:33 10° NE
Cosmos 1812 Rocket 3.6 23:32:07 10° NNW 23:36:35 70° W 23:38:55 27° S
Cosmos 2084 4.3 23:33:36 14° WSW 23:37:17 50° NW 23:41:39 10° NE
SL-19 R/B 4.3 23:32:02 10° NNE 23:37:34 76° ESE 23:41:19 23° S
Cosmos 1626 3.6 23:36:00 19° WSW 23:37:41 26° WNW 23:40:54 10° NNW
DELTA 2 DEB (DPAF) 4.2 23:35:37 21° SSE 23:38:35 84° ENE 23:43:05 10° NNW
BREEZE-M R/B 3.0 23:32:58 10° WSW 23:38:56 59° SSE 23:42:07 10° E
Cosmos 990 Rocket 4.0 23:34:27 10° NNW 23:39:42 67° WSW 23:43:10 21° S
Cosmos 2227 Rocket 2.4 23:34:23 10° NW 23:39:55 54° WSW 23:43:30 22° S
STARLINK-1243 3.6 23:36:04 10° WNW 23:40:09 61° SSW 23:44:14 10° SE
CZ-4 R/B 4.4 23:36:24 10° N 23:41:00 47° WNW 23:43:50 21° SW
ATLAS CENTAUR R/B 3.6 23:38:01 10° W 23:41:21 22° NNW 23:44:32 10° NNE
STARLINK-1236 3.6 23:41:02 10° WNW 23:45:06 57° SSW 23:49:10 10° SE
USA 81 4.1 23:42:28 22° S 23:45:53 81° E 23:51:12 10° N
Cosmos 1825 Rocket 4.0 23:44:53 21° SSE 23:47:31 54° E 23:51:47 10° NNE
Alouette 2 Rocket 3.8 23:42:08 10° NNW 23:47:56 89° W 23:50:43 21° SSE
Cosmos 1709 Rocket 4.0 23:44:10 21° S 23:48:26 80° E 23:54:38 10° NNE
Cosmos 1602 Rocket 3.7 23:47:23 26° SSW 23:49:39 61° WNW 23:53:57 10° N
Cosmos 2285 Rocket 4.0 23:47:12 10° NNW 23:53:37 86° WSW 23:59:57 10° SSE
STARLINK-1269 3.7 23:51:01 10° WNW 23:55:03 50° SSW 23:59:03 10° SE
STARLINK 1040 4.1 23:55:45 21° SE 23:55:45 21° SE 23:57:29 10° E
